GFSGL_500_temp_336.txt.gz
Temp
-10 -10 -11 -11 -11 -11 -11 -11 -11 -11 -11 -11 -12 -12 -12 -12 -12 -13 -13 -13 -14 -14 -14 -14 -15 -15 -15 -15 -15 -15 -15 -15 -15 -15 -15 -15 -15 -15 -15 -15 -15 -14 -14
-10 -11 -11 -11 -11 -11 -11 -11 -11 -11 -11 -12 -12 -12 -12 -12 -13 -13 -13 -14 -14 -14 -15 -15 -15 -15 -16 -16 -16 -16 -16 -16 -15 -15 -15 -15 -15 -15 -15 -15 -15 -14 -15
-11 -11 -11 -11 -12 -11 -11 -11 -11 -11 -12 -12 -13 -13 -13 -13 -13 -13 -14 -14 -14 -15 -15 -15 -16 -16 -16 -17 -17 -16 -16 -16 -16 -16 -16 -16 -16 -16 -16 -16 -16 -15 -15
-11 -12 -12 -12 -12 -12 -11 -12 -12 -13 -13 -13 -12 -13 -13 -13 -14 -14 -14 -14 -15 -15 -15 -16 -16 -17 -18 -18 -19 -19 -18 -18 -17 -17 -17 -16 -16 -16 -16 -16 -16 -15 -15
-12 -12 -12 -13 -12 -12 -12 -12 -13 -13 -13 -13 -13 -13 -14 -14 -14 -14 -15 -15 -15 -15 -16 -16 -17 -19 -20 -21 -20 -21 -20 -20 -20 -19 -19 -18 -18 -17 -17 -17 -16 -16 -16
-13 -13 -13 -12 -12 -13 -12 -13 -13 -14 -13 -13 -13 -14 -14 -14 -14 -15 -15 -16 -16 -16 -16 -17 -18 -20 -20 -21 -21 -21 -21 -20 -20 -20 -20 -20 -20 -19 -19 -18 -18 -18 -18
-12 -12 -13 -12 -12 -13 -14 -14 -13 -13 -13 -14 -14 -14 -14 -14 -15 -16 -15 -16 -16 -17 -17 -19 -19 -20 -19 -20 -21 -21 -20 -20 -20 -20 -20 -20 -20 -20 -20 -20 -19 -19 -19
-13 -13 -13 -13 -13 -13 -13 -13 -13 -13 -14 -14 -14 -14 -14 -15 -15 -16 -16 -16 -17 -17 -18 -19 -19 -20 -20 -20 -20 -20 -21 -21 -20 -20 -20 -20 -21 -21 -21 -21 -20 -20 -19
-13 -12 -13 -13 -13 -14 -14 -14 -14 -14 -14 -14 -14 -14 -15 -16 -16 -16 -17 -17 -17 -18 -19 -19 -19 -19 -19 -20 -20 -20 -20 -20 -20 -20 -20 -21 -22 -22 -22 -22 -22 -21 -20
-13 -13 -14 -14 -14 -14 -14 -14 -14 -14 -14 -14 -15 -16 -16 -16 -16 -17 -17 -18 -18 -18 -19 -19 -19 -19 -19 -19 -19 -19 -20 -20 -20 -21 -21 -21 -21 -22 -22 -23 -23 -22 -21
-14 -14 -14 -14 -14 -14 -14 -14 -15 -15 -15 -15 -16 -16 -16 -16 -17 -17 -17 -18 -18 -19 -19 -19 -19 -19 -20 -20 -20 -20 -20 -20 -20 -20 -21 -21 -21 -22 -22 -23 -23 -23 -22
-14 -14 -14 -15 -15 -15 -15 -15 -15 -15 -16 -17 -17 -17 -17 -17 -17 -18 -18 -18 -19 -19 -19 -19 -19 -20 -20 -20 -20 -20 -20 -20 -20 -20 -21 -21 -21 -22 -22 -23 -23 -23 -22
-15 -15 -15 -15 -15 -15 -16 -16 -16 -16 -17 -16 -17 -18 -18 -18 -18 -18 -18 -19 -19 -19 -19 -19 -20 -20 -20 -20 -20 -20 -21 -21 -21 -20 -21 -21 -22 -22 -22 -23 -23 -23 -23
-15 -15 -15 -16 -16 -16 -16 -16 -16 -16 -16 -17 -18 -18 -18 -18 -19 -19 -19 -19 -19 -19 -20 -20 -20 -20 -20 -20 -20 -20 -21 -21 -21 -21 -21 -22 -22 -22 -22 -23 -23 -23 -23
-15 -16 -17 -16 -17 -17 -17 -17 -17 -17 -17 -18 -18 -19 -19 -19 -19 -19 -19 -19 -19 -20 -20 -20 -20 -20 -20 -20 -20 -20 -21 -21 -21 -21 -22 -22 -21 -22 -23 -23 -23 -23 -23
-18 -18 -19 -19 -19 -19 -18 -18 -17 -18 -19 -19 -20 -20 -20 -20 -20 -20 -20 -20 -20 -20 -20 -20 -21 -20 -20 -20 -20 -20 -20 -21 -21 -22 -22 -22 -22 -22 -22 -23 -23 -23 -23
-18 -19 -19 -20 -19 -19 -19 -18 -19 -20 -20 -20 -20 -21 -21 -21 -21 -21 -21 -20 -20 -20 -21 -21 -21 -21 -21 -20 -20 -21 -21 -21 -21 -22 -22 -22 -22 -22 -23 -23 -22 -23 -23
-20 -19 -20 -20 -20 -20 -20 -19 -20 -20 -20 -21 -21 -22 -21 -21 -21 -21 -21 -20 -20 -20 -21 -21 -21 -21 -21 -21 -21 -21 -21 -21 -21 -21 -21 -22 -22 -22 -22 -22 -22 -22 -22
-19 -19 -20 -20 -20 -21 -21 -20 -21 -21 -21 -22 -22 -21 -21 -21 -21 -21 -21 -21 -21 -21 -21 -21 -21 -21 -21 -21 -21 -21 -21 -21 -22 -22 -21 -21 -22 -22 -22 -22 -21 -22 -22
-21 -21 -20 -21 -22 -21 -21 -21 -21 -22 -22 -21 -21 -21 -21 -21 -21 -21 -22 -21 -22 -21 -21 -21 -21 -21 -21 -21 -21 -21 -21 -22 -22 -22 -21 -21 -21 -22 -21 -21 -21 -21 -22
-23 -23 -22 -22 -22 -22 -22 -22 -21 -21 -21 -21 -21 -21 -21 -21 -21 -21 -22 -22 -22 -22 -22 -21 -21 -21 -21 -21 -21 -21 -21 -22 -22 -22 -22 -21 -21 -22 -21 -21 -21 -21 -21
-22 -22 -22 -22 -22 -22 -22 -21 -21 -21 -21 -21 -21 -22 -22 -22 -22 -22 -22 -22 -21 -21 -21 -21 -21 -21 -21 -21 -21 -21 -21 -22 -22 -22 -22 -22 -21 -21 -22 -21 -22 -22 -21
-21 -22 -22 -22 -22 -21 -21 -21 -21 -21 -21 -21 -22 -22 -22 -22 -21 -22 -22 -21 -21 -21 -21 -21 -21 -21 -21 -21 -21 -21 -21 -21 -22 -22 -22 -22 -22 -22 -22 -22 -22 -22 -21
-21 -21 -21 -21 -21 -21 -21 -21 -21 -21 -21 -21 -21 -21 -21 -21 -21 -21 -21 -21 -21 -21 -21 -21 -21 -21 -21 -21 -21 -21 -21 -21 -22 -22 -22 -22 -22 -22 -22 -22 -22 -22 -22
-20 -21 -22 -22 -21 -21 -21 -21 -21 -21 -20 -21 -21 -21 -21 -21 -21 -20 -20 -20 -21 -21 -21 -21 -21 -21 -21 -21 -21 -21 -21 -22 -22 -22 -22 -22 -23 -23 -22 -22 -22 -22 -21
-20 -21 -22 -22 -21 -21 -21 -21 -21 -20 -20 -20 -20 -20 -20 -20 -20 -20 -20 -20 -20 -20 -21 -20 -21 -21 -21 -21 -21 -21 -21 -22 -22 -22 -22 -22 -22 -22 -22 -22 -22 -21 -21

GFSGL_500_temp_339.txt.gz
Temp
-9 -11 -11 -11 -11 -11 -11 -11 -11 -11 -11 -11 -12 -12 -12 -12 -12 -12 -13 -13 -13 -13 -13 -14 -14 -14 -15 -15 -15 -16 -16 -16 -16 -16 -16 -16 -16 -16 -16 -16 -15 -15 -15
-10 -10 -11 -13 -11 -11 -10 -11 -11 -11 -11 -11 -12 -13 -13 -13 -13 -13 -13 -13 -13 -14 -14 -14 -14 -15 -15 -15 -15 -16 -17 -18 -18 -17 -17 -17 -17 -17 -16 -16 -16 -16 -16
-10 -11 -11 -12 -11 -11 -11 -11 -11 -11 -11 -12 -13 -13 -13 -13 -13 -13 -13 -14 -14 -14 -14 -15 -15 -15 -15 -15 -15 -16 -18 -20 -20 -20 -19 -20 -19 -18 -18 -17 -17 -16 -16
-11 -11 -11 -12 -12 -11 -12 -11 -12 -12 -12 -13 -13 -13 -13 -13 -13 -14 -14 -14 -14 -14 -15 -15 -16 -15 -15 -16 -16 -18 -19 -19 -19 -20 -21 -20 -20 -20 -19 -18 -18 -17 -17
-10 -11 -11 -11 -12 -12 -12 -12 -12 -12 -13 -13 -13 -13 -13 -13 -14 -14 -14 -14 -15 -15 -15 -16 -16 -16 -16 -18 -18 -19 -19 -19 -19 -20 -20 -20 -20 -20 -20 -19 -19 -19 -18
-11 -11 -11 -11 -12 -12 -12 -13 -13 -13 -13 -13 -13 -13 -13 -14 -14 -14 -14 -15 -16 -16 -16 -17 -17 -17 -18 -19 -19 -19 -18 -19 -19 -19 -19 -20 -20 -20 -20 -20 -20 -19 -19
-11 -11 -12 -11 -13 -13 -13 -13 -13 -13 -13 -13 -13 -14 -14 -14 -14 -15 -15 -16 -16 -16 -17 -17 -17 -18 -18 -19 -19 -19 -19 -19 -19 -19 -19 -20 -20 -20 -20 -20 -20 -20 -20
-12 -11 -11 -13 -14 -13 -13 -13 -14 -13 -14 -14 -14 -14 -14 -15 -15 -16 -16 -16 -17 -17 -17 -17 -17 -18 -19 -19 -19 -19 -19 -19 -19 -19 -19 -19 -20 -20 -20 -20 -20 -21 -21
-11 -11 -12 -14 -14 -14 -14 -14 -14 -14 -14 -14 -14 -15 -15 -15 -15 -16 -16 -17 -17 -17 -17 -17 -18 -19 -19 -19 -19 -19 -19 -19 -20 -19 -19 -19 -19 -20 -20 -20 -20 -21 -21
-11 -13 -13 -13 -15 -15 -14 -14 -14 -14 -15 -15 -15 -15 -15 -15 -16 -16 -17 -17 -17 -18 -18 -18 -18 -19 -19 -19 -19 -19 -19 -19 -19 -20 -20 -20 -20 -20 -20 -21 -21 -21 -22
-13 -13 -13 -13 -14 -14 -14 -14 -15 -15 -15 -15 -15 -16 -16 -16 -16 -17 -17 -18 -18 -18 -19 -19 -19 -20 -19 -19 -20 -19 -19 -19 -20 -20 -20 -20 -20 -20 -21 -21 -21 -21 -22
-13 -13 -14 -14 -14 -14 -15 -15 -15 -16 -16 -16 -16 -16 -16 -16 -17 -18 -18 -18 -18 -19 -19 -19 -20 -20 -20 -20 -20 -20 -20 -20 -19 -20 -20 -20 -20 -21 -21 -21 -22 -22 -22
-14 -13 -13 -14 -14 -15 -15 -16 -16 -17 -17 -17 -17 -17 -17 -18 -19 -19 -19 -19 -19 -19 -19 -20 -20 -20 -20 -20 -20 -20 -20 -20 -20 -20 -20 -21 -21 -21 -21 -21 -22 -22 -23
-14 -14 -14 -14 -15 -16 -17 -17 -18 -19 -18 -18 -18 -18 -19 -20 -19 -20 -20 -20 -20 -20 -20 -20 -20 -20 -20 -20 -20 -20 -20 -20 -20 -20 -20 -21 -21 -21 -21 -21 -22 -22 -23
-14 -15 -16 -16 -17 -18 -18 -19 -20 -19 -19 -19 -19 -20 -20 -20 -20 -21 -21 -21 -21 -21 -21 -20 -20 -20 -20 -20 -20 -20 -20 -20 -21 -21 -21 -22 -22 -22 -22 -22 -23 -23 -23
-16 -16 -17 -18 -19 -20 -20 -20 -20 -20 -20 -20 -20 -20 -20 -21 -21 -21 -21 -21 -21 -21 -21 -20 -20 -20 -21 -21 -21 -21 -21 -21 -21 -21 -21 -22 -22 -22 -22 -22 -23 -23 -23
-15 -18 -19 -19 -20 -20 -20 -20 -21 -21 -20 -20 -20 -21 -22 -22 -21 -21 -21 -21 -21 -21 -21 -21 -21 -21 -21 -21 -21 -21 -21 -21 -22 -22 -22 -22 -22 -22 -22 -23 -23 -23 -23
-17 -18 -20 -20 -20 -20 -20 -20 -21 -21 -20 -21 -21 -22 -21 -21 -21 -21 -21 -21 -21 -21 -21 -21 -21 -21 -21 -21 -21 -21 -21 -21 -22 -22 -22 -22 -22 -22 -22 -22 -22 -22 -23
-19 -19 -20 -20 -20 -21 -22 -21 -21 -21 -21 -21 -22 -22 -21 -21 -21 -21 -22 -22 -21 -21 -21 -21 -21 -21 -21 -21 -21 -21 -21 -22 -22 -22 -22 -22 -22 -22 -22 -22 -22 -22 -22
-19 -19 -20 -20 -21 -22 -22 -22 -22 -22 -22 -22 -22 -22 -21 -21 -21 -21 -22 -21 -21 -21 -21 -21 -21 -21 -21 -21 -21 -21 -21 -22 -22 -22 -22 -22 -21 -22 -22 -21 -22 -22 -22
-19 -20 -20 -21 -21 -21 -21 -22 -22 -22 -22 -22 -22 -22 -22 -22 -22 -22 -21 -21 -21 -21 -21 -21 -21 -21 -21 -21 -21 -21 -21 -21 -22 -22 -22 -22 -22 -22 -21 -21 -21 -21 -21
-19 -20 -20 -21 -21 -21 -21 -21 -22 -22 -22 -22 -22 -22 -22 -21 -22 -21 -21 -21 -21 -21 -21 -21 -21 -21 -21 -21 -21 -21 -21 -22 -22 -22 -22 -22 -22 -22 -21 -21 -21 -21 -21
-19 -20 -21 -21 -20 -20 -21 -21 -21 -21 -21 -21 -21 -21 -21 -21 -21 -21 -21 -21 -21 -21 -21 -21 -21 -21 -21 -21 -21 -21 -21 -21 -22 -22 -22 -22 -22 -22 -22 -21 -21 -21 -21
-20 -21 -21 -21 -21 -21 -21 -21 -20 -20 -20 -20 -21 -21 -20 -20 -20 -20 -20 -20 -20 -21 -21 -21 -21 -21 -21 -21 -21 -21 -21 -21 -22 -22 -22 -23 -23 -22 -22 -22 -22 -22 -21
-20 -20 -20 -20 -20 -21 -21 -20 -20 -20 -20 -20 -20 -20 -20 -20 -20 -20 -20 -20 -20 -21 -21 -21 -21 -21 -21 -21 -21 -21 -21 -22 -22 -22 -22 -22 -22 -22 -22 -22 -22 -22 -21
-19 -20 -20 -20 -20 -20 -20 -20 -20 -20 -19 -19 -20 -20 -20 -19 -20 -20 -20 -20 -20 -20 -21 -21 -21 -21 -21 -21 -21 -21 -21 -21 -22 -22 -22 -22 -22 -22 -22 -21 -21 -21 -21

GFSGL_500_temp_342.txt.gz
Temp
-10 -9 -10 -10 -10 -11 -10 -12 -12 -12 -12 -12 -11 -12 -11 -12 -12 -12 -12 -12 -12 -13 -13 -13 -13 -14 -14 -14 -14 -15 -15 -15 -14 -14 -15 -16 -17 -18 -18 -18 -17 -17 -17
-9 -10 -10 -11 -10 -11 -11 -11 -13 -13 -13 -12 -12 -12 -12 -12 -12 -13 -13 -13 -13 -13 -13 -14 -14 -14 -15 -15 -15 -15 -15 -15 -15 -15 -17 -17 -18 -18 -19 -19 -19 -18 -18
-10 -10 -10 -11 -11 -10 -11 -12 -13 -14 -14 -13 -13 -12 -12 -13 -13 -13 -13 -13 -13 -14 -14 -14 -14 -14 -15 -15 -16 -16 -16 -16 -17 -17 -18 -18 -18 -19 -19 -20 -20 -19 -19
-11 -11 -10 -11 -11 -10 -11 -12 -12 -13 -13 -13 -13 -13 -13 -13 -13 -14 -14 -14 -14 -14 -14 -14 -15 -15 -15 -16 -16 -17 -17 -17 -18 -18 -18 -18 -19 -19 -19 -20 -20 -20 -19
-11 -11 -11 -11 -10 -11 -11 -11 -12 -13 -13 -13 -13 -13 -13 -13 -13 -14 -14 -14 -14 -14 -14 -15 -15 -15 -16 -16 -17 -17 -18 -18 -18 -18 -18 -18 -19 -19 -19 -19 -20 -20 -20
-11 -11 -11 -11 -11 -11 -11 -11 -13 -13 -13 -13 -13 -13 -13 -14 -14 -14 -14 -14 -14 -14 -15 -16 -16 -16 -17 -17 -17 -18 -18 -19 -19 -19 -19 -19 -19 -19 -19 -19 -19 -20 -20
-11 -11 -11 -11 -11 -11 -11 -13 -13 -13 -13 -13 -13 -14 -14 -14 -14 -14 -14 -14 -14 -15 -16 -16 -17 -17 -17 -18 -19 -19 -19 -19 -19 -19 -19 -19 -19 -19 -19 -20 -20 -20 -20
-11 -12 -12 -11 -12 -12 -12 -13 -13 -14 -14 -14 -14 -14 -14 -14 -14 -14 -15 -15 -15 -16 -16 -17 -18 -18 -18 -18 -19 -19 -19 -19 -19 -19 -19 -19 -19 -19 -20 -20 -20 -20 -20
-12 -12 -11 -12 -12 -12 -13 -13 -15 -14 -14 -14 -14 -14 -14 -14 -15 -15 -15 -16 -16 -16 -17 -18 -18 -18 -18 -19 -20 -20 -20 -20 -20 -20 -19 -19 -19 -20 -20 -20 -20 -20 -20
-11 -11 -12 -12 -13 -13 -12 -12 -14 -14 -14 -14 -14 -15 -15 -16 -16 -16 -16 -16 -17 -17 -18 -18 -18 -19 -19 -19 -20 -20 -20 -20 -20 -20 -19 -19 -19 -19 -20 -20 -20 -20 -20
-11 -12 -12 -13 -12 -12 -13 -14 -13 -14 -15 -15 -16 -16 -16 -16 -17 -17 -17 -17 -18 -19 -19 -19 -19 -19 -20 -20 -20 -20 -20 -20 -20 -20 -20 -20 -19 -20 -20 -20 -20 -20 -20
-13 -13 -13 -13 -13 -14 -13 -14 -14 -15 -16 -16 -17 -17 -17 -17 -17 -18 -18 -19 -19 -19 -20 -20 -20 -20 -20 -20 -20 -20 -20 -20 -20 -20 -20 -20 -20 -20 -20 -20 -20 -21 -21
-14 -14 -13 -14 -14 -14 -14 -14 -15 -16 -17 -18 -18 -18 -18 -18 -19 -19 -20 -20 -20 -20 -21 -21 -21 -21 -21 -21 -20 -20 -20 -21 -21 -20 -21 -21 -21 -21 -21 -21 -21 -21 -21
-14 -14 -13 -14 -14 -14 -15 -16 -17 -19 -19 -20 -20 -19 -19 -19 -19 -20 -20 -21 -21 -21 -21 -21 -21 -21 -21 -21 -21 -21 -21 -21 -21 -21 -21 -21 -21 -22 -22 -22 -21 -21 -21
-14 -14 -14 -15 -15 -15 -16 -18 -19 -19 -20 -20 -20 -20 -20 -20 -20 -21 -21 -21 -21 -21 -21 -21 -21 -21 -21 -21 -21 -21 -21 -21 -21 -21 -21 -22 -22 -21 -22 -22 -22 -22 -22
-14 -14 -14 -15 -15 -16 -18 -19 -20 -20 -20 -20 -20 -20 -20 -21 -21 -21 -21 -21 -21 -21 -21 -21 -21 -21 -21 -21 -21 -21 -21 -21 -21 -21 -21 -22 -22 -22 -22 -22 -23 -23 -23
-15 -14 -15 -15 -16 -17 -18 -19 -20 -21 -21 -21 -22 -22 -22 -21 -21 -21 -21 -21 -21 -21 -22 -21 -21 -21 -21 -21 -21 -21 -21 -21 -21 -21 -22 -22 -22 -22 -22 -22 -22 -23 -23
-15 -16 -15 -16 -17 -18 -18 -19 -20 -21 -22 -22 -22 -21 -21 -21 -21 -21 -21 -21 -21 -21 -21 -21 -21 -21 -21 -21 -21 -21 -21 -21 -21 -22 -22 -22 -22 -21 -22 -22 -22 -22 -22
-16 -16 -17 -18 -18 -19 -19 -20 -20 -21 -21 -21 -21 -21 -21 -22 -22 -22 -22 -21 -21 -21 -21 -21 -21 -21 -21 -21 -21 -21 -21 -21 -21 -22 -22 -22 -21 -21 -22 -22 -22 -22 -22
-16 -17 -17 -18 -19 -19 -19 -20 -20 -21 -21 -21 -21 -21 -22 -22 -21 -21 -21 -21 -21 -21 -21 -21 -21 -21 -21 -21 -21 -21 -21 -21 -21 -22 -22 -22 -21 -21 -21 -22 -21 -22 -22
-17 -18 -19 -19 -19 -19 -19 -20 -20 -21 -21 -21 -22 -22 -22 -21 -21 -21 -21 -21 -21 -21 -21 -21 -21 -21 -21 -21 -21 -21 -21 -21 -22 -22 -22 -22 -22 -22 -21 -21 -21 -21 -21
-18 -19 -19 -19 -19 -20 -20 -20 -20 -20 -20 -21 -21 -21 -21 -21 -20 -20 -21 -21 -21 -21 -21 -21 -21 -21 -21 -21 -21 -21 -21 -21 -22 -22 -22 -22 -22 -22 -21 -21 -21 -21 -21
-19 -19 -20 -20 -20 -19 -19 -19 -19 -20 -20 -20 -20 -20 -20 -20 -20 -20 -20 -20 -21 -21 -21 -21 -21 -21 -21 -21 -21 -21 -21 -22 -22 -22 -22 -22 -22 -22 -22 -21 -21 -22 -21
-19 -19 -20 -20 -19 -19 -19 -19 -19 -19 -20 -20 -20 -20 -20 -20 -20 -20 -20 -20 -20 -21 -21 -21 -21 -21 -21 -21 -21 -21 -21 -22 -22 -22 -22 -22 -22 -21 -22 -22 -21 -21 -22
-19 -19 -19 -20 -19 -19 -19 -19 -19 -19 -19 -19 -19 -19 -19 -19 -19 -20 -20 -20 -20 -20 -21 -21 -21 -21 -21 -21 -21 -21 -21 -22 -22 -22 -22 -22 -21 -21 -21 -21 -22 -22 -21
-18 -19 -19 -19 -19 -19 -19 -19 -19 -19 -19 -19 -19 -19 -19 -19 -19 -19 -20 -20 -20 -20 -20 -21 -21 -21 -21 -21 -21 -21 -21 -21 -22 -22 -22 -21 -21 -21 -21 -21 -21 -21 -21

GFSGL_500_temp_345.txt.gz
Temp
-10 -10 -10 -9 -8 -10 -9 -10 -10 -10 -10 -10 -11 -10 -11 -11 -12 -12 -11 -11 -11 -12 -12 -13 -13 -13 -14 -14 -14 -14 -14 -14 -14 -15 -15 -15 -14 -15 -15 -16 -16 -16 -16
-9 -10 -9 -9 -10 -10 -10 -10 -11 -11 -10 -10 -10 -11 -11 -12 -12 -12 -12 -12 -12 -13 -13 -13 -14 -13 -14 -14 -14 -15 -15 -15 -15 -15 -15 -15 -16 -17 -17 -17 -17 -17 -17
-10 -10 -10 -10 -10 -11 -10 -11 -11 -11 -11 -11 -11 -12 -12 -12 -13 -13 -13 -13 -13 -13 -13 -13 -13 -14 -14 -14 -15 -15 -16 -16 -16 -16 -16 -17 -18 -18 -18 -17 -17 -18 -18
-10 -10 -10 -10 -10 -10 -11 -11 -11 -10 -11 -12 -12 -12 -12 -12 -13 -13 -13 -13 -13 -13 -14 -14 -14 -14 -14 -15 -15 -16 -16 -17 -17 -17 -17 -18 -18 -18 -18 -18 -18 -18 -18
-11 -11 -11 -11 -10 -11 -11 -11 -11 -11 -11 -11 -12 -12 -12 -13 -13 -14 -14 -14 -14 -14 -14 -14 -15 -15 -15 -16 -16 -16 -17 -17 -17 -17 -17 -18 -19 -18 -18 -19 -19 -18 -18
-11 -11 -11 -11 -11 -11 -11 -11 -11 -12 -12 -13 -13 -13 -12 -13 -13 -13 -14 -14 -14 -14 -15 -15 -15 -15 -16 -16 -17 -17 -18 -18 -18 -18 -18 -19 -19 -19 -19 -19 -19 -19 -19
-11 -11 -11 -11 -10 -10 -11 -12 -11 -12 -12 -13 -14 -15 -15 -14 -14 -14 -14 -14 -15 -15 -15 -16 -16 -16 -16 -17 -17 -18 -18 -19 -19 -19 -19 -19 -19 -19 -19 -19 -19 -19 -19
-11 -11 -11 -12 -11 -11 -12 -12 -12 -12 -12 -13 -13 -15 -15 -14 -15 -15 -15 -16 -16 -16 -16 -16 -16 -17 -18 -19 -19 -19 -19 -19 -19 -19 -19 -20 -20 -20 -19 -19 -19 -19 -19
-11 -12 -12 -12 -12 -12 -12 -13 -13 -13 -13 -13 -14 -14 -14 -15 -16 -17 -17 -17 -17 -17 -18 -18 -18 -19 -19 -19 -19 -20 -20 -20 -20 -20 -20 -20 -20 -19 -19 -19 -19 -19 -19
-12 -12 -12 -12 -13 -13 -13 -13 -13 -13 -13 -13 -14 -15 -16 -18 -17 -17 -18 -18 -18 -18 -18 -19 -19 -20 -20 -20 -20 -20 -20 -20 -20 -20 -20 -20 -20 -20 -20 -19 -19 -19 -20
-12 -12 -13 -13 -13 -13 -14 -14 -14 -14 -14 -15 -16 -17 -17 -18 -18 -19 -19 -18 -18 -18 -19 -20 -21 -21 -21 -21 -21 -21 -20 -20 -20 -20 -20 -20 -20 -20 -20 -20 -20 -20 -20
-13 -13 -13 -13 -13 -13 -14 -14 -14 -15 -16 -16 -17 -17 -19 -19 -19 -19 -19 -19 -19 -19 -20 -21 -21 -21 -21 -21 -21 -21 -20 -20 -20 -21 -21 -21 -21 -21 -20 -20 -21 -21 -21
-13 -13 -13 -14 -14 -15 -15 -14 -15 -16 -16 -18 -19 -20 -19 -19 -20 -20 -19 -20 -19 -20 -21 -21 -21 -21 -21 -21 -20 -21 -21 -21 -21 -21 -21 -21 -21 -21 -21 -21 -21 -21 -22
-13 -13 -14 -14 -14 -14 -15 -15 -15 -17 -17 -17 -20 -20 -20 -20 -20 -20 -20 -20 -21 -21 -21 -21 -21 -21 -21 -21 -21 -21 -21 -21 -21 -21 -21 -21 -21 -21 -22 -21 -21 -22 -22
-14 -14 -14 -14 -14 -15 -15 -15 -16 -16 -17 -19 -20 -21 -21 -21 -21 -20 -21 -21 -20 -20 -20 -21 -21 -21 -21 -21 -21 -20 -21 -21 -21 -21 -21 -21 -22 -22 -21 -22 -22 -22 -22
-14 -14 -15 -15 -15 -15 -16 -16 -17 -18 -19 -19 -19 -20 -21 -21 -21 -21 -21 -21 -20 -20 -21 -21 -21 -21 -21 -21 -21 -21 -21 -21 -21 -21 -21 -21 -22 -22 -22 -22 -22 -22 -22
-15 -15 -15 -15 -16 -17 -18 -19 -19 -18 -19 -19 -20 -20 -21 -21 -21 -21 -21 -21 -21 -21 -21 -21 -21 -21 -21 -21 -20 -20 -20 -21 -21 -21 -21 -21 -21 -21 -22 -22 -22 -22 -22
-15 -15 -16 -17 -18 -19 -19 -19 -19 -19 -19 -20 -20 -20 -21 -21 -21 -21 -21 -21 -21 -21 -21 -21 -21 -21 -20 -20 -20 -20 -21 -21 -21 -21 -21 -21 -21 -21 -22 -22 -22 -22 -22
-16 -16 -17 -18 -18 -19 -19 -19 -19 -19 -19 -20 -20 -21 -21 -21 -21 -21 -21 -21 -21 -21 -21 -21 -21 -21 -20 -20 -20 -21 -21 -21 -21 -21 -22 -21 -21 -21 -21 -21 -22 -22 -22
-16 -17 -17 -18 -18 -19 -19 -19 -19 -19 -19 -20 -20 -21 -21 -21 -20 -20 -21 -20 -20 -21 -21 -21 -21 -21 -21 -21 -21 -21 -21 -21 -22 -22 -22 -21 -21 -21 -21 -21 -21 -21 -22
-17 -17 -18 -18 -19 -18 -18 -18 -19 -19 -19 -19 -20 -20 -20 -20 -20 -20 -20 -20 -20 -20 -21 -20 -21 -21 -21 -21 -21 -21 -21 -22 -22 -22 -22 -21 -21 -21 -21 -21 -21 -21 -22
-18 -18 -18 -18 -18 -18 -18 -18 -18 -18 -19 -19 -19 -19 -20 -20 -20 -20 -20 -20 -20 -20 -20 -20 -21 -21 -21 -21 -21 -21 -22 -22 -22 -22 -22 -22 -21 -21 -21 -21 -21 -21 -22
-18 -19 -19 -18 -18 -18 -18 -18 -18 -19 -19 -19 -19 -19 -19 -19 -20 -20 -20 -20 -20 -20 -20 -21 -21 -21 -21 -21 -21 -21 -22 -22 -22 -22 -22 -22 -22 -22 -21 -21 -22 -21 -22
-18 -18 -18 -18 -18 -18 -18 -18 -18 -18 -19 -19 -19 -19 -19 -19 -19 -20 -20 -20 -20 -20 -20 -20 -20 -21 -21 -21 -21 -21 -22 -22 -22 -22 -22 -22 -21 -21 -21 -21 -21 -22 -22
-18 -18 -18 -18 -18 -18 -18 -18 -18 -19 -19 -19 -19 -19 -19 -19 -19 -19 -19 -20 -20 -20 -20 -20 -20 -21 -21 -21 -21 -21 -21 -22 -21 -21 -21 -21 -21 -21 -21 -21 -21 -21 -21
-18 -18 -18 -18 -19 -19 -19 -19 -19 -19 -19 -19 -19 -19 -19 -19 -19 -19 -19 -19 -20 -20 -20 -20 -20 -20 -21 -21 -21 -21 -21 -21 -21 -21 -21 -21 -21 -21 -21 -21 -21 -21 -21